Vancouver, WA

12:19 PM PST on February 08, 2016 (GMT -0800)
Pearson

Weather History for KVUO - January, 2014

Change the Weather History Date:

Wednesday, January 15, 2014

  Actual Average Record
Temperature  
Mean Temperature 40 °F 42 °F  
Max Temperature 42 °F 48 °F 63 °F (1958)
Min Temperature 38 °F 36 °F 5 °F (1907)
Degree Days  
Heating Degree Days 25    
Month to date heating degree days 338  
Since 1 July heating degree days 2336  
Cooling Degree Days 0    
Month to date cooling degree days 0  
Year to date cooling degree days 0  
Moisture  
Dew Point 38 °F    
Average Humidity 93    
Maximum Humidity 100    
Minimum Humidity 86    
Precipitation  
Precipitation 0.00 in 0.16 in 1.90 in (1974)
Month to date precipitation 1.87 2.89  
Year to date precipitation 1.87 2.89  
Sea Level Pressure  
Sea Level Pressure 30.55 in    
Wind  
Wind Speed 2 mph (East)    
Max Wind Speed 7 mph    
Max Gust Speed 9 mph    
Visibility 6 miles    
Events      
T = Trace of Precipitation, MM = Missing Value Source: NWS Daily Summary

Daily Weather History Graph

Daily Weather History Graph

Search for Another Location

Airport or City:

Trip Planner

Search our weather history database for the weather conditions in past years. The results will help you decide how hot, cold, wet, or windy it might be!

Date:

Astronomy

Jan. 15, 2014 Rise Set
Actual Time 7:47 AM PST 4:53 PM PST
Civil Twilight 7:14 AM PST 5:26 PM PST
Nautical Twilight 6:37 AM PST 6:03 PM PST
Astronomical Twilight 6:01 AM PST 6:38 PM PST
Moon 4:59 PM PST (1/15) 7:04 AM PST (1/15)
Length of Visible Light 10h 12m
Length of Day
9h 06m
Full, 100% of the Moon is Illuminated
Jan 15
Full
Jan 15
Full
Jan 23
Last Quarter
Jan 30
New
Feb 6
First Quarter

Hourly Weather History & Observations

Time (PST) Temp. Windchill Dew Point Humidity Pressure Visibility Wind Dir Wind Speed Gust Speed Precip Events Conditions
12:50 AM 41.0 °F - 41.0 °F 100% 30.58 in 1.5 mi Calm Calm - N/A   Overcast
12:53 AM 42.1 °F - 41.0 °F 96% 30.58 in 1.5 mi Calm Calm - N/A   Overcast
1:08 AM 42.1 °F - 41.0 °F 96% 30.57 in 2.0 mi Calm Calm - N/A   Overcast
1:34 AM 41.0 °F - 41.0 °F 100% 30.57 in 1.5 mi Calm Calm - N/A   Overcast
1:51 AM 41.0 °F - 41.0 °F 100% 30.57 in 2.0 mi Calm Calm - N/A   Overcast
1:53 AM 41.0 °F - 41.0 °F 100% 30.58 in 2.0 mi Calm Calm - N/A   Overcast
2:35 AM 42.1 °F - 41.0 °F 96% 30.59 in 3.0 mi Calm Calm - N/A   Overcast
2:44 AM 42.1 °F 39.2 °F 41.0 °F 96% 30.58 in 2.5 mi NW 4.6 mph - N/A   Overcast
2:53 AM 41.0 °F - 41.0 °F 100% 30.58 in 3.0 mi Calm Calm - N/A   Overcast
3:53 AM 41.0 °F 39.0 °F 39.9 °F 96% 30.59 in 9.0 mi North 3.5 mph - N/A   Overcast
4:06 AM 39.9 °F - 39.0 °F 97% 30.59 in 10.0 mi Calm Calm - N/A   Overcast
4:21 AM 39.9 °F 35.1 °F 37.9 °F 93% 30.59 in 10.0 mi NNE 6.9 mph - N/A   Overcast
4:34 AM 39.9 °F 37.8 °F 37.9 °F 93% 30.59 in 10.0 mi ENE 3.5 mph - N/A   Overcast
4:53 AM 39.9 °F 36.7 °F 37.9 °F 93% 30.59 in 10.0 mi NE 4.6 mph - N/A   Overcast
5:18 AM 39.0 °F 36.8 °F 37.9 °F 96% 30.59 in 10.0 mi ENE 3.5 mph - N/A   Overcast
5:45 AM 39.0 °F 35.7 °F 37.9 °F 96% 30.59 in 7.0 mi ENE 4.6 mph - N/A   Overcast
5:53 AM 39.0 °F - 37.9 °F 96% 30.59 in 5.0 mi Calm Calm - N/A   Overcast
6:16 AM 39.0 °F 36.8 °F 37.9 °F 96% 30.59 in 10.0 mi ENE 3.5 mph - N/A   Overcast
6:53 AM 39.0 °F 36.8 °F 37.0 °F 93% 30.58 in 10.0 mi East 3.5 mph - N/A   Overcast
7:53 AM 39.9 °F 36.7 °F 37.9 °F 93% 30.58 in 10.0 mi ESE 4.6 mph - N/A   Overcast
8:53 AM 39.9 °F - 37.0 °F 89% 30.58 in 10.0 mi Calm Calm - N/A   Overcast
9:53 AM 39.9 °F - 37.0 °F 89% 30.59 in 10.0 mi Calm Calm - N/A   Overcast
10:53 AM 41.0 °F 39.0 °F 37.9 °F 89% 30.58 in 10.0 mi Variable 3.5 mph - N/A   Overcast
11:53 AM 41.0 °F 38.0 °F 37.9 °F 89% 30.56 in 8.0 mi ESE 4.6 mph - N/A   Overcast
12:53 PM 41.0 °F - 37.9 °F 89% 30.54 in 8.0 mi Calm Calm - N/A   Overcast
1:53 PM 41.0 °F 39.0 °F 37.0 °F 86% 30.52 in 9.0 mi Variable 3.5 mph - N/A   Overcast
2:53 PM 41.0 °F 39.0 °F 37.0 °F 86% 30.50 in 8.0 mi West 3.5 mph - N/A   Overcast
3:53 PM 41.0 °F - 37.0 °F 86% 30.50 in 10.0 mi Calm Calm - N/A   Overcast
4:53 PM 41.0 °F - 37.0 °F 86% 30.50 in 8.0 mi Calm Calm - N/A   Overcast
5:53 PM 41.0 °F - 37.0 °F 86% 30.50 in 10.0 mi Calm Calm - N/A   Overcast
6:53 PM 41.0 °F - 37.9 °F 89% 30.49 in 10.0 mi Calm Calm - N/A   Overcast
7:53 PM 39.9 °F 36.7 °F 37.9 °F 93% 30.49 in 7.0 mi ESE 4.6 mph - N/A   Overcast
8:53 PM 39.9 °F - 37.9 °F 93% 30.49 in 6.0 mi Calm Calm - N/A   Overcast
9:11 PM 39.9 °F - 37.9 °F 93% 30.49 in 6.0 mi Calm Calm - N/A   Overcast
9:53 PM 39.9 °F 37.8 °F 37.9 °F 93% 30.50 in 4.0 mi SE 3.5 mph - N/A   Overcast
10:31 PM 39.0 °F 36.8 °F 37.9 °F 96% 30.50 in 2.5 mi SSE 3.5 mph - N/A   Overcast
10:53 PM 37.9 °F 33.5 °F 37.0 °F 97% 30.51 in 1.8 mi SE 5.8 mph - N/A   Overcast
11:10 PM 37.9 °F 35.5 °F 37.0 °F 97% 30.50 in 2.5 mi SE 3.5 mph - N/A   Overcast
11:28 PM 37.9 °F 35.5 °F 37.0 °F 97% 30.50 in 3.0 mi SE 3.5 mph - N/A   Overcast
11:53 PM 37.9 °F 35.5 °F 37.0 °F 97% 30.50 in 7.0 mi SSE 3.5 mph - N/A   Overcast